EW4347 Weather Reports


Display with metric or nautical units.
time (UTC)temp
F
wind
direction
speed
MPH
gust
MPH
rain 1hr
in
rain 24hr
in
rain mn
in
humidity
%
barometer
mb
20260508060222 35 150 0.0 2.0 0.00 0.02 0.00 85 1005.5
20260508055722 35 150 0.0 2.0 0.00 0.08 0.00 83 1005.6
20260508055222 35 150 0.0 1.0 0.00 0.08 0.00 84 1005.6
20260508054700 35 150 0.0 1.0 0.00 0.08 0.00 83 1005.6
20260508054200 36 150 0.0 2.0 0.00 0.08 0.00 81 1005.6
20260508053638 36 150 0.0 3.0 0.00 0.08 0.00 82 1005.6
20260508053150 36 150 0.0 4.0 0.00 0.08 0.00 83 1005.6
20260508053138 36 150 0.0 4.0 0.00 0.08 0.00 82 1005.6
20260508052617 36 149 1.0 5.0 0.00 0.08 0.00 83 1005.7
20260508052116 36 168 2.0 5.0 0.00 0.08 0.00 82 1005.6
20260508051631 36 146 2.0 5.0 0.00 0.08 0.00 83 1005.7
20260508051616 36 146 2.0 5.0 0.00 0.08 0.00 82 1005.6
20260508051116 36 166 1.0 4.0 0.00 0.08 0.00 84 1005.6
20260508050615 37 169 0.0 5.0 0.00 0.08 0.00 83 1005.7
20260508050115 36 150 1.0 4.0 0.00 0.08 0.00 81 1005.7
20260508050109 36 150 1.0 4.0 0.00 0.08 0.00 81 1005.8
20260508045615 37 147 1.0 4.0 0.00 0.16 0.00 80 1005.7
20260508045115 36 142 1.0 5.0 0.00 0.16 0.00 79 1005.7
20260508044614 36 135 1.0 5.0 0.00 0.16 0.00 81 1005.7
20260508044552 36 143 1.0 5.0 0.00 0.16 0.00 81 1005.7
20260508044114 37 144 1.0 5.0 0.00 0.16 0.00 81 1005.7
20260508043614 37 137 2.0 5.0 0.00 0.16 0.00 82 1005.7
20260508043113 37 144 1.0 4.0 0.00 0.16 0.00 81 1005.8
20260508043038 37 145 1.0 4.0 0.00 0.16 0.00 81 1005.9
20260508042531 37 152 1.0 4.0 0.00 0.16 0.00 79 1005.7
20260508042031 37 124 1.0 5.0 0.00 0.16 0.00 79 1005.8
20260508041520 37 129 2.0 5.0 0.00 0.16 0.00 78 1005.9
20260508041509 37 129 2.0 5.0 0.00 0.16 0.00 78 1005.9
20260508041009 37 140 2.0 3.0 0.00 0.16 0.00 79 1005.9
20260508040509 37 112 1.0 3.0 0.00 0.16 0.00 78 1006.0
20260508040009 37 108 0.0 1.0 0.00 0.16 0.00 78 1006.0
20260508035508 38 108 0.0 2.0 0.00 0.21 0.16 78 1006.1
20260508035008 38 108 0.0 2.0 0.00 0.21 0.16 77 1006.1
20260508034508 38 108 1.0 3.0 0.00 0.21 0.16 74 1006.1
20260508034008 38 108 1.0 5.0 0.00 0.21 0.16 73 1006.0
20260508033446 38 112 1.0 5.0 0.00 0.21 0.16 77 1005.9
20260508032925 38 150 0.0 4.0 0.00 0.21 0.16 79 1005.9
20260508032425 37 156 1.0 4.0 0.00 0.21 0.16 80 1005.9
20260508031924 38 149 1.0 3.0 0.00 0.21 0.16 81 1005.9
20260508031424 38 153 1.0 3.0 0.00 0.21 0.16 78 1006.0
20260508030924 38 155 0.0 1.0 0.00 0.21 0.16 77 1005.9
20260508030423 38 155 0.0 1.0 0.00 0.21 0.16 76 1005.8
20260508025902 39 155 0.0 2.0 0.00 0.27 0.16 75 1005.9
20260508025401 39 155 0.0 3.0 0.00 0.27 0.16 74 1005.9
20260508024901 40 156 1.0 3.0 0.00 0.27 0.16 71 1005.8
20260508024401 40 156 0.0 3.0 0.00 0.27 0.16 72 1005.8
20260508023900 41 156 1.0 3.0 0.00 0.27 0.16 71 1005.9
20260508023400 41 199 1.0 4.0 0.00 0.27 0.16 68 1005.9
20260508022900 41 204 0.0 4.0 0.00 0.27 0.16 68 1005.8
20260508022359 42 206 1.0 3.0 0.00 0.27 0.16 66 1005.8
20260508021859 43 206 1.0 4.0 0.00 0.27 0.16 65 1005.8
20260508021338 43 206 0.0 4.0 0.00 0.27 0.16 60 1005.8
20260508020837 43 207 1.0 4.0 0.00 0.27 0.16 57 1005.9
20260508020337 44 231 1.0 4.0 0.00 0.27 0.16 56 1005.9
20260508015836 44 228 1.0 3.0 0.00 0.28 0.16 58 1005.9
20260508015336 45 228 0.0 4.0 0.00 0.28 0.16 60 1005.9
20260508014836 45 230 2.0 7.0 0.00 0.28 0.16 55 1005.9
20260508014335 45 228 2.0 8.0 0.00 0.28 0.16 57 1005.7
20260508013835 45 228 3.0 8.0 0.00 0.28 0.16 56 1005.8
20260508013335 45 224 4.0 8.0 0.00 0.28 0.16 55 1005.8
20260508012834 45 218 3.0 8.0 0.00 0.28 0.16 58 1005.8
20260508012334 45 206 3.0 7.0 0.00 0.28 0.16 58 1005.8
20260508011813 45 214 3.0 7.0 0.00 0.28 0.16 56 1005.7
20260508011702 46 206 3.0 9.0 0.00 0.28 0.16 62 1005.8
20260508011312 46 228 2.0 9.0 0.00 0.28 0.16 54 1005.7
20260508010812 46 256 3.0 7.0 0.00 0.28 0.16 52 1005.7
20260508010312 46 233 4.0 8.0 0.00 0.28 0.16 54 1005.7
20260508010145 46 232 3.0 8.0 0.00 0.28 0.16 55 1005.8
20260508005811 46 224 2.0 8.0 0.00 0.31 0.16 53 1005.8
20260508005311 47 231 2.0 6.0 0.00 0.31 0.16 52 1005.8
20260508004811 47 226 1.0 9.0 0.00 0.31 0.16 52 1005.7
20260508004632 47 226 1.0 9.0 0.00 0.31 0.16 52 1005.8
20260508004311 47 226 4.0 9.0 0.00 0.31 0.16 50 1005.7
20260508003810 47 236 3.0 9.0 0.00 0.31 0.16 50 1005.7
20260508003310 48 237 3.0 12.0 0.00 0.31 0.16 50 1005.6
20260508003122 48 249 4.0 12.0 0.00 0.31 0.16 49 1005.5
20260508002810 48 220 7.0 12.0 0.00 0.31 0.16 49 1005.5
20260508002248 48 226 3.0 9.0 0.00 0.31 0.16 50 1005.5
20260508001748 48 241 3.0 10.0 0.00 0.31 0.16 52 1005.5
20260508001553 48 256 1.0 10.0 0.00 0.31 0.16 50 1005.5
20260508001248 48 260 3.0 12.0 0.00 0.31 0.16 49 1005.4
20260508000747 49 248 4.0 13.0 0.00 0.31 0.16 48 1005.3
20260508000249 49 230 7.0 18.0 0.00 0.31 0.16 48 1005.3
20260508000043 49 249 5.0 18.0 0.00 0.31 0.16 48 1005.4
20260507235746 49 218 8.0 18.0 0.00 0.32 0.16 48 1005.2
20260507235246 49 249 4.0 12.0 0.00 0.32 0.16 48 1005.2
20260507234746 50 199 9.0 17.0 0.00 0.32 0.16 48 1005.1
20260507234519 50 232 3.0 17.0 0.00 0.32 0.16 47 1005.1
20260507234245 50 228 6.0 17.0 0.00 0.32 0.16 46 1005.0
20260507233745 51 218 7.0 14.0 0.00 0.32 0.16 46 1004.9
20260507233245 51 203 5.0 13.0 0.00 0.32 0.16 45 1004.8
20260507233002 51 219 7.0 16.0 0.00 0.32 0.16 45 1004.8
20260507232744 51 211 8.0 16.0 0.00 0.32 0.16 44 1004.6
20260507232244 52 223 6.0 14.0 0.00 0.32 0.16 44 1004.6
20260507231701 52 285 9.0 16.0 0.00 0.32 0.16 43 1004.4
20260507231201 52 235 9.0 16.0 0.00 0.32 0.16 43 1004.4
20260507230700 53 231 4.0 17.0 0.00 0.32 0.16 44 1004.3
20260507230200 53 262 8.0 18.0 0.00 0.32 0.16 43 1004.2
20260507225700 53 249 12.0 20.0 0.00 0.54 0.16 42 1004.0
20260507225159 54 245 11.0 20.0 0.00 0.54 0.16 43 1003.8
20260507224659 54 224 10.0 20.0 0.00 0.54 0.16 43 1003.8
20260507224138 54 242 11.0 20.0 0.00 0.54 0.16 42 1003.6
20260507223638 55 276 7.0 19.0 0.00 0.54 0.16 44 1003.6
20260507223137 55 232 10.0 18.0 0.00 0.54 0.16 43 1003.4
20260507222637 56 219 6.0 15.0 0.00 0.54 0.16 44 1003.3
20260507222137 56 244 8.0 17.0 0.00 0.54 0.16 43 1003.3
20260507221636 56 275 7.0 16.0 0.00 0.54 0.16 44 1003.2
20260507221136 56 222 9.0 20.0 0.00 0.54 0.16 44 1003.2
20260507220635 57 241 10.0 20.0 0.00 0.54 0.16 44 1003.0
20260507220135 57 290 10.0 20.0 0.00 0.54 0.16 45 1003.0
20260507215635 57 227 10.0 18.0 0.00 0.61 0.16 46 1002.9
20260507215135 57 258 9.0 18.0 0.00 0.61 0.16 46 1002.9
20260507214634 56 234 10.0 18.0 0.00 0.61 0.16 46 1002.9
20260507214134 57 279 6.0 17.0 0.00 0.61 0.16 44 1002.7
20260507213634 57 299 7.0 13.0 0.00 0.61 0.16 41 1002.6
20260507213133 57 245 3.0 15.0 0.00 0.61 0.16 40 1002.6
20260507212633 58 232 8.0 16.0 0.00 0.61 0.16 37 1002.5
20260507212133 59 270 10.0 16.0 0.00 0.61 0.16 35 1002.5
20260507211633 59 248 7.0 16.0 0.00 0.61 0.16 35 1002.4
20260507211132 59 250 7.0 17.0 0.00 0.61 0.16 36 1002.3
20260507210632 60 223 8.0 17.0 0.00 0.61 0.16 35 1002.3
20260507210131 61 236 6.0 19.0 0.00 0.61 0.16 35 1002.2
20260507205631 60 234 7.0 19.0 0.00 0.73 0.16 40 1002.3
20260507205131 60 210 6.0 25.0 0.00 0.73 0.16 41 1002.3
20260507204610 60 231 8.0 19.0 0.00 0.73 0.16 41 1002.2
20260507204048 60 235 5.0 13.0 0.00 0.73 0.16 41 1002.1
20260507203506 60 195 7.0 14.0 0.00 0.73 0.16 43 1002.1
20260507203149 59 198 5.0 15.0 0.00 0.73 0.16 42 1002.1
20260507203006 60 237 7.0 15.0 0.00 0.73 0.16 41 1001.9
20260507202505 61 216 9.0 15.0 0.00 0.73 0.16 44 1002.0
20260507202005 62 201 5.0 13.0 0.00 0.73 0.16 44 1002.0
20260507201632 61 166 5.0 15.0 0.00 0.73 0.16 47 1002.0
20260507201504 61 183 6.0 15.0 0.00 0.73 0.16 46 1001.9
20260507201004 60 224 7.0 15.0 0.00 0.73 0.16 47 1002.1
20260507200504 59 261 4.0 16.0 0.00 0.73 0.16 47 1002.1
20260507200111 59 257 9.0 16.0 0.00 0.73 0.16 48 1002.1
20260507200004 59 200 8.0 16.0 0.00 0.73 0.16 49 1002.1
20260507195503 58 238 2.0 11.0 0.00 0.90 0.16 50 1002.1
20260507194942 58 249 6.0 14.0 0.00 0.90 0.16 50 1002.1
20260507194556 58 211 5.0 15.0 0.00 0.90 0.16 50 1002.2
20260507194420 58 202 7.0 15.0 0.00 0.90 0.16 51 1002.2
20260507193920 59 260 7.0 15.0 0.00 0.90 0.16 49 1002.1
20260507193420 60 160 6.0 12.0 0.00 0.90 0.16 48 1002.1
20260507193046 60 181 6.0 15.0 0.00 0.90 0.16 51 1002.2
20260507192920 60 254 8.0 15.0 0.00 0.90 0.16 49 1002.1
20260507192337 59 238 7.0 15.0 0.00 0.90 0.16 50 1002.2
20260507191837 59 200 4.0 14.0 0.00 0.90 0.16 52 1002.2
20260507191526 59 201 7.0 18.0 0.00 0.90 0.16 49 1002.1
20260507191316 59 223 5.0 18.0 0.00 0.90 0.16 50 1002.1
20260507190754 60 224 8.0 18.0 0.00 0.90 0.16 50 1002.0
20260507190254 61 164 4.0 12.0 0.00 0.90 0.16 44 1002.0
20260507185754 60 175 7.0 12.0 0.00 0.92 0.16 48 1002.0
20260507185233 59 253 4.0 13.0 0.00 0.92 0.16 51 1002.1
20260507184732 59 214 6.0 13.0 0.00 0.92 0.16 50 1002.2
20260507184232 59 160 2.0 9.0 0.00 0.92 0.16 53 1002.1
20260507183731 59 242 4.0 9.0 0.00 0.92 0.16 51 1002.1
20260507183231 59 127 5.0 11.0 0.00 0.92 0.16 50 1002.3
20260507182731 59 201 6.0 12.0 0.00 0.92 0.16 50 1002.4
20260507182230 59 191 5.0 12.0 0.00 0.92 0.16 52 1002.5
20260507181730 59 141 6.0 11.0 0.00 0.92 0.16 55 1002.6
20260507181209 58 145 5.0 12.0 0.00 0.92 0.16 51 1002.5
20260507180710 59 199 6.0 11.0 0.00 0.92 0.16 52 1002.5
20260507180208 59 149 4.0 10.0 0.00 0.92 0.16 53 1002.5
20260507175708 58 155 6.0 10.0 0.00 0.92 0.16 55 1002.6
20260507175208 58 134 6.0 11.0 0.00 0.92 0.16 55 1002.7
20260507174646 58 144 4.0 9.0 0.00 0.92 0.16 57 1002.7
20260507174146 58 199 3.0 9.0 0.00 0.92 0.16 58 1002.7
20260507173645 58 170 2.0 9.0 0.00 0.92 0.16 60 1002.8
20260507173145 58 216 4.0 9.0 0.00 0.92 0.16 58 1002.7
20260507172645 58 224 2.0 9.0 0.00 0.92 0.16 55 1002.7
20260507172144 58 218 2.0 10.0 0.00 0.92 0.16 57 1002.8
20260507171644 58 165 4.0 9.0 0.00 0.92 0.16 58 1002.9
20260507171144 57 201 3.0 10.0 0.00 0.92 0.16 58 1002.9
20260507170643 57 160 3.0 10.0 0.00 0.92 0.16 57 1002.9
20260507170143 57 214 4.0 7.0 0.00 0.92 0.16 60 1003.0
20260507165643 57 183 4.0 8.0 0.00 0.92 0.16 57 1003.0
20260507165143 57 222 2.0 10.0 0.00 0.92 0.16 59 1003.0
20260507164643 57 205 3.0 7.0 0.00 0.92 0.16 64 1003.1
20260507164142 57 174 4.0 10.0 0.00 0.92 0.16 60 1003.2
20260507163642 57 211 4.0 10.0 0.00 0.92 0.16 60 1003.2
20260507163141 57 218 3.0 8.0 0.00 0.92 0.16 58 1003.2
20260507162641 58 134 5.0 10.0 0.00 0.92 0.16 58 1003.4
20260507162141 58 237 5.0 10.0 0.00 0.92 0.16 60 1003.4
20260507161659 57 123 1.0 8.0 0.00 0.92 0.16 66 1003.6
20260507161619 57 207 1.0 8.0 0.00 0.92 0.16 62 1003.5
20260507161119 57 159 4.0 8.0 0.00 0.92 0.16 61 1003.6
20260507160619 57 87 2.0 7.0 0.00 0.92 0.16 61 1003.6
20260507160141 57 204 2.0 7.0 0.00 0.92 0.16 61 1003.9
20260507160118 57 204 2.0 7.0 0.00 0.92 0.16 61 1003.8
20260507155618 56 187 1.0 7.0 0.00 0.92 0.16 59 1003.9
20260507155118 56 290 0.0 2.0 0.00 0.92 0.16 65 1003.9
20260507154629 55 293 1.0 5.0 0.00 0.92 0.16 64 1004.0
20260507154617 55 256 1.0 5.0 0.00 0.92 0.16 64 1003.9
20260507154117 55 255 2.0 5.0 0.00 0.92 0.16 64 1003.8
20260507153616 56 4 2.0 5.0 0.00 0.92 0.16 63 1003.9
20260507153114 57 29 3.0 7.0 0.00 0.92 0.16 58 1003.9
20260507153055 57 31 3.0 7.0 0.00 0.92 0.16 58 1003.8
20260507152555 57 38 0.0 5.0 0.00 0.92 0.16 62 1003.9
20260507152055 56 6 2.0 10.0 0.00 0.92 0.16 62 1003.9
20260507151556 57 21 3.0 10.0 0.00 0.92 0.16 63 1004.1
20260507151554 57 31 3.0 10.0 0.00 0.92 0.16 63 1004.0
20260507151054 57 68 4.0 8.0 0.00 0.92 0.16 69 1004.1
20260507150553 56 102 2.0 5.0 0.00 0.92 0.16 68 1004.3
20260507150053 55 120 3.0 6.0 0.00 0.92 0.16 66 1004.2
20260507150035 55 120 3.0 6.0 0.00 0.92 0.16 66 1004.3
20260507145552 56 181 3.0 6.0 0.00 0.92 0.16 67 1004.3
20260507145052 55 38 1.0 5.0 0.00 0.92 0.16 72 1004.3
20260507144552 55 203 2.0 5.0 0.00 0.92 0.16 64 1004.3
20260507144525 55 203 2.0 5.0 0.00 0.92 0.16 64 1004.4
20260507144052 55 269 1.0 6.0 0.00 0.92 0.16 66 1004.3
20260507143530 55 339 3.0 6.0 0.00 0.92 0.16 69 1004.3
20260507143030 55 284 2.0 5.0 0.00 0.92 0.16 71 1004.4
20260507142530 54 162 2.0 4.0 0.00 0.92 0.16 72 1004.3
20260507142029 54 198 2.0 5.0 0.00 0.92 0.16 71 1004.5
20260507141529 54 234 2.0 5.0 0.00 0.92 0.16 74 1004.7
20260507141029 54 229 2.0 6.0 0.00 0.92 0.16 70 1004.8
20260507140528 54 285 2.0 5.0 0.00 0.92 0.16 73 1004.8
20260507140007 54 264 0.0 6.0 0.00 0.92 0.16 73 1004.8
20260507135424 54 293 2.0 8.0 0.00 0.92 0.16 76 1004.7
20260507134924 53 268 3.0 8.0 0.00 0.92 0.16 75 1004.7
20260507134403 53 274 3.0 8.0 0.00 0.92 0.16 73 1004.8
20260507133902 53 245 4.0 9.0 0.00 0.92 0.16 75 1004.8
20260507133341 52 256 5.0 9.0 0.00 0.92 0.16 76 1004.8
20260507132841 52 260 2.0 9.0 0.00 0.92 0.16 76 1004.8
20260507132340 52 205 4.0 9.0 0.00 0.92 0.16 75 1004.8
20260507131840 51 262 3.0 9.0 0.00 0.92 0.16 76 1004.9
20260507131340 51 265 4.0 9.0 0.00 0.92 0.16 77 1004.9
20260507130839 52 287 3.0 9.0 0.00 0.92 0.16 78 1005.0
20260507130339 51 257 4.0 9.0 0.00 0.92 0.16 77 1005.1
20260507125839 51 226 5.0 8.0 0.00 0.92 0.16 78 1005.0
20260507125338 51 222 3.0 8.0 0.00 0.92 0.16 80 1004.8
20260507124838 51 258 2.0 8.0 0.00 0.92 0.16 81 1004.8
20260507124338 50 233 5.0 10.0 0.00 0.92 0.16 79 1004.8
20260507123838 50 244 3.0 10.0 0.00 0.92 0.16 81 1004.9
20260507123337 49 231 4.0 9.0 0.00 0.92 0.16 83 1005.0
20260507122837 49 253 4.0 14.0 0.00 0.92 0.16 81 1005.1
20260507122337 49 241 8.0 14.0 0.00 0.92 0.16 80 1005.2
20260507121837 49 226 7.0 13.0 0.00 0.92 0.16 81 1005.2
20260507121337 49 266 3.0 10.0 0.00 0.92 0.16 85 1005.3
20260507120815 49 235 4.0 10.0 0.00 0.92 0.16 83 1005.4
20260507120254 48 256 3.0 14.0 0.00 0.92 0.16 84 1005.3
20260507115754 48 207 7.0 14.0 0.00 0.92 0.16 84 1005.4
20260507115253 47 250 2.0 11.0 0.00 0.92 0.16 85 1005.4
20260507114753 47 255 4.0 11.0 0.00 0.92 0.16 87 1005.3
20260507114651 47 251 5.0 9.0 0.00 0.92 0.16 86 1005.3
20260507114253 47 212 3.0 7.0 0.00 0.92 0.16 88 1005.2
20260507113752 47 188 2.0 6.0 0.00 0.92 0.16 89 1005.3
20260507113252 47 168 2.0 6.0 0.00 0.92 0.16 89 1005.6
20260507113137 47 167 3.0 7.0 0.00 0.92 0.16 89 1005.7
20260507112752 47 227 2.0 7.0 0.00 0.92 0.16 89 1005.6
20260507112230 46 236 4.0 6.0 0.00 0.92 0.16 89 1005.4
20260507111730 46 206 3.0 8.0 0.00 0.92 0.16 91 1005.1
20260507111622 46 211 3.0 8.0 0.00 0.92 0.16 92 1005.2
20260507111148 46 233 3.0 8.0 0.00 0.92 0.16 91 1005.3
20260507110647 45 232 3.0 6.0 0.00 0.92 0.16 93 1005.2
20260507110147 45 235 2.0 6.0 0.00 0.92 0.16 94 1005.2
20260507110059 45 233 2.0 6.0 0.00 0.92 0.16 94 1005.2
20260507105646 44 214 2.0 5.0 0.00 0.92 0.16 94 1005.3
20260507105146 44 263 1.0 5.0 0.00 0.92 0.16 95 1005.4
20260507104646 44 247 2.0 5.0 0.00 0.92 0.16 95 1005.5
20260507104543 44 276 2.0 5.0 0.00 0.92 0.16 95 1005.5
20260507104103 44 293 2.0 4.0 0.00 0.92 0.16 95 1005.3
20260507103603 44 273 1.0 8.0 0.00 0.92 0.16 95 1004.9
20260507103103 44 244 2.0 8.0 0.00 0.92 0.16 96 1004.9
20260507103029 44 263 2.0 6.0 0.00 0.92 0.16 96 1004.9
20260507102602 44 199 2.0 4.0 0.00 0.92 0.16 96 1004.9
20260507102102 43 198 1.0 4.0 0.00 0.92 0.16 97 1005.1
20260507101601 43 199 1.0 4.0 0.00 0.92 0.16 97 1005.0
20260507101511 43 199 1.0 4.0 0.00 0.92 0.16 97 1004.9
20260507101101 43 185 0.0 3.0 0.00 0.92 0.16 97 1004.8
20260507100601 43 185 1.0 3.0 0.00 0.92 0.16 97 1005.1
20260507095600 43 209 0.0 3.0 0.01 0.92 0.16 97 1004.9
20260507095100 43 170 0.0 2.0 0.01 0.92 0.16 97 1004.9
20260507094600 43 141 0.0 2.0 0.01 0.92 0.16 97 1004.9
20260507094039 43 154 0.0 2.0 0.01 0.92 0.16 97 1004.9
20260507093538 43 251 0.0 2.0 0.01 0.92 0.16 97 1004.8
20260507093038 43 251 0.0 2.0 0.01 0.92 0.16 96 1005.0
20260507092536 43 251 0.0 2.0 0.01 0.92 0.16 96 1004.9
20260507092036 43 251 0.0 3.0 0.01 0.92 0.16 96 1005.0
20260507091536 43 251 1.0 3.0 0.01 0.92 0.16 96 1005.1
20260507091035 43 251 1.0 3.0 0.01 0.92 0.16 96 1005.1
20260507090535 43 251 1.0 2.0 0.01 0.92 0.16 96 1004.8
20260507090014 43 252 0.0 2.0 0.01 0.92 0.16 95 1004.5
20260507085513 43 252 0.0 2.0 0.00 0.91 0.15 95 1004.3
20260507085013 44 252 0.0 3.0 0.00 0.91 0.15 95 1004.2
20260507084513 44 246 0.0 4.0 0.00 0.91 0.15 95 1004.4
20260507084013 44 246 2.0 7.0 0.00 0.91 0.15 95 1004.6
20260507083451 44 256 2.0 7.0 0.00 0.91 0.15 95 1004.6
20260507082951 44 276 1.0 7.0 0.00 0.91 0.15 95 1004.5
20260507082430 44 249 1.0 7.0 0.00 0.91 0.15 95 1004.7
20260507081929 45 246 2.0 6.0 0.00 0.91 0.15 95 1004.7
20260507081429 45 237 1.0 6.0 0.00 0.91 0.15 95 1004.9
20260507080928 45 250 2.0 3.0 0.00 0.91 0.15 95 1004.8
20260507080428 45 248 0.0 6.0 0.00 0.91 0.15 95 1004.9
20260507075928 45 250 2.0 6.0 0.00 0.91 0.15 95 1004.7
20260507075428 45 262 1.0 3.0 0.00 0.91 0.15 95 1004.6
20260507074927 45 263 1.0 4.0 0.00 0.91 0.15 95 1004.4
20260507074427 46 265 1.0 5.0 0.00 0.91 0.15 95 1004.3
20260507073926 46 266 2.0 7.0 0.00 0.91 0.15 95 1004.4
20260507073426 46 249 3.0 7.0 0.00 0.91 0.15 95 1004.6
20260507072926 46 257 3.0 7.0 0.00 0.91 0.15 96 1004.5
20260507072404 46 250 1.0 6.0 0.00 0.91 0.15 96 1004.5
20260507071904 46 231 2.0 4.0 0.00 0.91 0.15 96 1004.4
20260507071643 46 219 2.0 4.0 0.00 0.91 0.15 96 1004.4
20260507071403 46 218 1.0 4.0 0.00 0.91 0.15 96 1004.3
20260507070903 46 212 1.0 5.0 0.00 0.91 0.15 97 1004.1
20260507070403 46 212 2.0 5.0 0.00 0.91 0.15 97 1004.1
20260507070130 46 290 1.0 3.0 0.01 0.91 0.15 97 1003.9
20260507065903 46 291 1.0 3.0 0.01 0.91 0.15 97 1003.8
20260507065402 46 291 1.0 2.0 0.01 0.91 0.15 96 1003.9
20260507064902 46 291 0.0 2.0 0.02 0.91 0.15 96 1003.9
20260507064604 46 291 0.0 2.0 0.02 0.91 0.15 96 1004.1
20260507064401 46 291 0.0 2.0 0.03 0.91 0.15 96 1004.1
20260507063902 46 291 1.0 3.0 0.04 0.91 0.15 96 1004.1
20260507063401 46 292 1.0 5.0 0.04 0.91 0.15 96 1003.8
20260507063051 46 292 1.0 6.0 0.04 0.91 0.15 96 1003.9
20260507062901 46 303 1.0 6.0 0.04 0.91 0.15 95 1003.7
20260507062400 46 276 2.0 4.0 0.04 0.91 0.15 96 1003.8
20260507061900 46 316 2.0 5.0 0.06 0.91 0.15 96 1003.7
20260507061533 47 319 3.0 5.0 0.06 0.91 0.15 96 1003.6
20260507061400 47 296 2.0 5.0 0.06 0.91 0.15 96 1003.6
20260507060859 47 273 1.0 7.0 0.06 0.91 0.15 96 1003.9
20260507060359 47 273 3.0 9.0 0.07 0.91 0.15 95 1003.7